CZ-3B DEB, 40188

Orbit data source: Space-Track

CZ-3B DEB, 40188 is space debris originally from a launch on Mon, 19 Dec 2011 UTC launched from the Xichang Space Center, China (XSC). Debris objects in space refer to the collection of defunct objects orbiting the Earth. Examples of debris include non-operational satellites, rocket bodies, and fragments generated from explosions, collisions, or faulty payload assembly.

Loading next visibility...
CZ-3B DEB details
Identifier
40188, 2011-077M
Orbit
Molniya
Last TLE update6 days ago
Origin
Flag of CNCASC (CN / PRC)
ManufacturerCALT
MissionSpacecraft
Bus & MotorUnknown
MassUnknown
Launch date (UTC)
2011-12-19 (13 years ago)
Launch vehicleUnknown
Launch site
Xichang Space Center, China (XSC)
Object type
Payload
Rocket body
Debris
Shape & HBRUnknown
Radar Cross SectionMedium (>0.1 m² and <1 m²)

Expand to show TLE details & history

TLE from 6 days ago
0 CZ-3B DEB
1 40188U 11077M   24340.65722457  .00000505  00000-0  17628-1 0  9993
2 40188  26.1658 127.0367 7417063 160.8068 258.9218  1.91382857 84128
Epoch: 2024-12-05T15:46Z
Definitive object data (Epoch: 2024-12-05T15:46:24.202Z)
Latitude-0.00003°
Longitude175.49601°
Altitude34,728.732 km
Speed2.202 km/s
True Right ascension08h 28m 07s
True Declination0° 00' 00"
Sunlit
Object was in daylight at TLE epoch
Visualization TLE readout
Latitude-1.08876°
Longitude171.56925°
Altitude37,622.561 km
Speed1.89 km/s
Apparent Right ascension08h 11m 03s
Apparent Declination-5° 43' 52"
Sunlit
Object is in daylight
Visualization observer readout
Local Sidereal Time19:58:54
Azimuth354.625° N
Elevation-55.706°
Doppler factor1
Orbital elements
Apogee altitude41,356.629 km
Perigee altitude700.892 km
Semi-major axis27,406.898 km
Eccentricity0.7417063
Inclination26.1658°
RAAN127.0367°
Arg. of periapsis160.8068°
True anomaly199.26123°
Mean anomaly258.9218°
Eccentric anomaly227.55996°
Mean motion0.47836 °/min
BSTAR0.017628
Orbital period752.57 mins
Loading maneuver chart data...
Loading historical data...
Loading historical data...
Loading historical data...
Loading historical data...
Loading historical data...
Loading historical data...
Loading historical data...

CZ-3B DEB Visibility forecast

Observer location: undefined°, undefined

Span
Click to sort rows by Start time (UTC) header in descending order
Start Az.
Max El. time (UTC)
Max El. Az.
Max El.
End time (UTC)
End Az.
579 mins2024-12-12 04:24:01.605Z137.377° SSE2024-12-12 13:40:01.605Z175.863° S41.017°2024-12-12 14:03:01.605Z100.377° ESE
|